• En España
  • Lista de países
  • Para 7 días
  • Temperatura del agua
  • Mapa Satelital
  • El tiempo en el mapa
  • Informadores
  • user-avatar
    Iniciar sesión

    Tiempo cada hora Rio de Mouro

    Hoy, 19 Enero, Viernes

    Tiempo Temperatura Precipitaciones Viento Presión Humedad
    00:00 +9°C° 0 mm 8 mps 755 mmHg 88%
    01:00 +9°C° 0 mm 8 mps 755 mmHg 87%
    02:00 +9°C° 0 mm 8 mps 755 mmHg 87%
    03:00 +9°C° 0 mm 8 mps 755 mmHg 87%
    04:00 +9°C° 0 mm 8 mps 755 mmHg 87%
    05:00 +7°C° 0 mm 8 mps 755 mmHg 87%
    06:00 +9°C° 0 mm 8 mps 755 mmHg 84%
    07:00 +9°C° 0 mm 8 mps 755 mmHg 82%
    08:00 +9°C° 0 mm 8 mps 756 mmHg 79%
    09:00 +11°C° 0 mm 7 mps 756 mmHg 72%
    10:00 +14°C° 0 mm 7 mps 757 mmHg 65%
    11:00 +16°C° 0 mm 7 mps 757 mmHg 58%
    12:00 +16°C° 0 mm 7 mps 757 mmHg 57%
    13:00 +17°C° 0 mm 7 mps 757 mmHg 56%
    14:00 +18°C° 0 mm 7 mps 756 mmHg 55%
    15:00 +16°C° 0 mm 7 mps 757 mmHg 63%
    16:00 +14°C° 0 mm 6 mps 757 mmHg 71%
    17:00 +11°C° 0 mm 6 mps 757 mmHg 80%
    18:00 +10°C° 0 mm 6 mps 758 mmHg 82%
    19:00 +9°C° 0 mm 6 mps 759 mmHg 84%
    20:00 +9°C° 0 mm 6 mps 759 mmHg 87%
    21:00 +8°C° 0 mm 6 mps 759 mmHg 88%
    22:00 +8°C° 0 mm 5 mps 759 mmHg 88%
    23:00 +7°C° 0 mm 5 mps 760 mmHg 89%

    Mañana, 20 Enero, Sábado

    Tiempo Temperatura Precipitaciones Viento Presión Humedad
    00:00 +7°C° 0 mm 5 mps 760 mmHg 90%
    01:00 +7°C° 0 mm 5 mps 760 mmHg 90%
    02:00 +6°C° 0 mm 4 mps 760 mmHg 91%
    03:00 +6°C° 0 mm 4 mps 760 mmHg 91%
    04:00 +6°C° 0 mm 4 mps 760 mmHg 91%
    05:00 +6°C° 0 mm 4 mps 760 mmHg 91%
    06:00 +6°C° 0 mm 4 mps 760 mmHg 90%
    07:00 +7°C° 0 mm 4 mps 761 mmHg 89%
    08:00 +8°C° 0 mm 3 mps 761 mmHg 88%
    09:00 +10°C° 0 mm 3 mps 761 mmHg 78%
    10:00 +12°C° 0 mm 3 mps 761 mmHg 68%
    11:00 +16°C° 0 mm 3 mps 762 mmHg 58%
    12:00 +16°C° 0 mm 3 mps 761 mmHg 57%
    13:00 +17°C° 0 mm 4 mps 761 mmHg 56%
    14:00 +17°C° 0 mm 4 mps 761 mmHg 55%
    15:00 +15°C° 0 mm 4 mps 761 mmHg 63%
    16:00 +13°C° 0 mm 4 mps 761 mmHg 72%
    17:00 +11°C° 0 mm 4 mps 761 mmHg 80%
    18:00 +11°C° 0 mm 4 mps 762 mmHg 83%
    19:00 +10°C° 0 mm 4 mps 762 mmHg 86%
    20:00 +10°C° 0 mm 4 mps 762 mmHg 90%
    21:00 +10°C° 0 mm 4 mps 762 mmHg 91%
    22:00 +10°C° 0 mm 3 mps 763 mmHg 92%
    23:00 +10°C° 0 mm 3 mps 763 mmHg 93%

    Pasado mañana, 21 Enero, Domingo

    Tiempo Temperatura Precipitaciones Viento Presión Humedad
    00:00 +10°C° 0 mm 3 mps 762 mmHg 94%
    01:00 +9°C° 0 mm 3 mps 762 mmHg 94%
    02:00 +9°C° 0 mm 3 mps 762 mmHg 95%
    03:00 +9°C° 0 mm 3 mps 762 mmHg 96%
    04:00 +9°C° 0 mm 3 mps 762 mmHg 96%
    05:00 +10°C° 0 mm 3 mps 762 mmHg 96%
    06:00 +10°C° 0 mm 2 mps 762 mmHg 96%
    07:00 +10°C° 0 mm 2 mps 762 mmHg 96%
    08:00 +12°C° 0 mm 2 mps 762 mmHg 96%
    09:00 +13°C° 0 mm 2 mps 762 mmHg 87%
    10:00 +15°C° 0 mm 2 mps 762 mmHg 79%
    11:00 +17°C° 0 mm 3 mps 762 mmHg 71%
    12:00 +18°C° 0 mm 3 mps 762 mmHg 69%
    13:00 +18°C° 0 mm 3 mps 761 mmHg 66%
    14:00 +18°C° 0 mm 4 mps 761 mmHg 64%
    15:00 +17°C° 0 mm 4 mps 761 mmHg 71%
    16:00 +14°C° 0 mm 4 mps 761 mmHg 78%
    17:00 +13°C° 0 mm 4 mps 761 mmHg 85%
    18:00 +12°C° 0 mm 4 mps 761 mmHg 87%
    19:00 +11°C° 0 mm 4 mps 762 mmHg 90%
    20:00 +11°C° 0 mm 3 mps 762 mmHg 93%
    21:00 +10°C° 0 mm 3 mps 762 mmHg 93%
    22:00 +10°C° 0 mm 3 mps 762 mmHg 93%
    23:00 +10°C° 0 mm 3 mps 762 mmHg 94%

    22 Enero, Lunes

    Tiempo Temperatura Precipitaciones Viento Presión Humedad
    00:00 +10°C° 0 mm 3 mps 762 mmHg 94%
    01:00 +9°C° 0 mm 3 mps 761 mmHg 94%
    02:00 +9°C° 0 mm 3 mps 761 mmHg 95%
    03:00 +9°C° 0 mm 3 mps 761 mmHg 94%
    04:00 +9°C° 0 mm 3 mps 761 mmHg 94%
    05:00 +8°C° 0 mm 3 mps 761 mmHg 94%
    06:00 +9°C° 0 mm 3 mps 761 mmHg 93%
    07:00 +9°C° 0 mm 3 mps 761 mmHg 91%
    08:00 +10°C° 0 mm 3 mps 761 mmHg 89%
    09:00 +12°C° 0 mm 3 mps 762 mmHg 81%
    10:00 +14°C° 0 mm 3 mps 762 mmHg 72%
    11:00 +17°C° 0 mm 3 mps 762 mmHg 63%
    12:00 +17°C° 0 mm 3 mps 761 mmHg 61%
    13:00 +18°C° 0 mm 4 mps 761 mmHg 58%
    14:00 +19°C° 0 mm 4 mps 760 mmHg 56%
    15:00 +17°C° 0 mm 4 mps 760 mmHg 63%
    16:00 +14°C° 0 mm 4 mps 761 mmHg 71%
    17:00 +12°C° 0 mm 4 mps 761 mmHg 78%
    18:00 +11°C° 0 mm 4 mps 761 mmHg 81%
    19:00 +10°C° 0 mm 4 mps 761 mmHg 84%
    20:00 +10°C° 0 mm 4 mps 761 mmHg 87%
    21:00 +8°C° 0 mm 4 mps 761 mmHg 87%
    22:00 +8°C° 0 mm 4 mps 761 mmHg 87%
    23:00 +7°C° 0 mm 4 mps 761 mmHg 87%

    23 Enero, Martes

    Tiempo Temperatura Precipitaciones Viento Presión Humedad
    00:00 +7°C° 0 mm 4 mps 761 mmHg 87%
    01:00 +6°C° 0 mm 4 mps 760 mmHg 86%
    02:00 +6°C° 0 mm 4 mps 760 mmHg 85%
    03:00 +6°C° 0 mm 4 mps 760 mmHg 84%
    04:00 +5°C° 0 mm 4 mps 760 mmHg 83%
    05:00 +5°C° 0 mm 4 mps 760 mmHg 82%
    06:00 +6°C° 0 mm 4 mps 760 mmHg 79%
    07:00 +7°C° 0 mm 3 mps 760 mmHg 76%
    08:00 +8°C° 0 mm 3 mps 760 mmHg 73%
    09:00 +10°C° 0 mm 3 mps 760 mmHg 64%
    10:00 +13°C° 0 mm 3 mps 760 mmHg 56%
    11:00 +16°C° 0 mm 3 mps 760 mmHg 47%
    12:00 +17°C° 0 mm 2 mps 759 mmHg 45%
    13:00 +18°C° 0 mm 2 mps 759 mmHg 44%
    14:00 +19°C° 0 mm 2 mps 758 mmHg 42%
    15:00 +17°C° 0 mm 2 mps 758 mmHg 49%
    16:00 +15°C° 0 mm 2 mps 758 mmHg 57%
    17:00 +14°C° 0 mm 2 mps 758 mmHg 64%
    18:00 +13°C° 0 mm 2 mps 758 mmHg 70%
    19:00 +12°C° 0 mm 2 mps 758 mmHg 75%
    20:00 +10°C° 0 mm 2 mps 758 mmHg 81%
    21:00 +10°C° 0 mm 3 mps 758 mmHg 82%
    22:00 +9°C° 0 mm 3 mps 758 mmHg 84%
    23:00 +9°C° 0 mm 3 mps 758 mmHg 85%

    24 Enero, Miércoles

    Tiempo Temperatura Precipitaciones Viento Presión Humedad
    00:00 +8°C° 0 mm 3 mps 757 mmHg 85%
    01:00 +8°C° 0 mm 3 mps 757 mmHg 85%
    02:00 +8°C° 0 mm 3 mps 756 mmHg 86%
    03:00 +8°C° 0 mm 3 mps 756 mmHg 86%
    04:00 +8°C° 0 mm 3 mps 756 mmHg 86%
    05:00 +8°C° 0 mm 3 mps 756 mmHg 86%
    06:00 +8°C° 0 mm 3 mps 756 mmHg 84%
    07:00 +8°C° 0 mm 4 mps 756 mmHg 81%
    08:00 +8°C° 0 mm 4 mps 756 mmHg 79%
    09:00 +11°C° 0 mm 4 mps 756 mmHg 71%
    10:00 +13°C° 0 mm 4 mps 756 mmHg 64%
    11:00 +15°C° 0 mm 4 mps 756 mmHg 56%
    12:00 +17°C° 0 mm 4 mps 756 mmHg 56%
    13:00 +17°C° 0 mm 4 mps 756 mmHg 55%
    14:00 +18°C° 0 mm 4 mps 755 mmHg 55%
    15:00 +16°C° 0 mm 3 mps 755 mmHg 63%
    16:00 +14°C° 0 mm 3 mps 756 mmHg 71%
    17:00 +12°C° 0 mm 3 mps 756 mmHg 79%
    18:00 +12°C° 0 mm 3 mps 756 mmHg 83%
    19:00 +12°C° 0 mm 2 mps 756 mmHg 87%
    20:00 +12°C° 0 mm 2 mps 757 mmHg 92%
    21:00 +12°C° 0 mm 2 mps 757 mmHg 92%
    22:00 +12°C° 0 mm 2 mps 757 mmHg 93%
    23:00 +12°C° 0 mm 2 mps 757 mmHg 94%
    Mostrar más